This is the latest recevied weather packets stored in our database for station/object KA1JKB. If no packets are shown the sender has not sent any weather packets the latest 10 day(s).
| Time | Temp. | Humidity | Pressure | Rain* | Wind** | Luminosity | Snow |
|---|---|---|---|---|---|---|---|
| 1788440050 | 25.56° C | 99% | 1012.6 hPa | 0 mm | - | 152 W/m² | - |
| 1788439749 | 25.56° C | 99% | 1012.6 hPa | 0 mm | - | 201 W/m² | - |
| 1788439473 | 25.56° C | 99% | 1012.6 hPa | 0 mm | - | 240 W/m² | - |
| 1788439143 | 25° C | 99% | 1012.5 hPa | 0 mm | - | 177 W/m² | - |
| 1788438838 | 25° C | 99% | 1012.9 hPa | 0 mm | - | 177 W/m² | - |
| 1788438537 | 25° C | 99% | 1012.9 hPa | 0 mm | - | 105 W/m² | - |
| 1788438232 | 24.44° C | 99% | 1012.8 hPa | 0 mm | - | 93 W/m² | - |
| 1788437945 | 25° C | 99% | 1013 hPa | 0 mm | - | 91 W/m² | - |
| 1788437626 | 25° C | 99% | 1012.8 hPa | 0 mm | - | 97 W/m² | - |
| 1788437322 | 24.44° C | 99% | 1012.7 hPa | 0 mm | - | 90 W/m² | - |
| 1788437020 | 23.89° C | 99% | 1012.6 hPa | 0 mm | - | 74 W/m² | - |
| 1788436719 | 23.33° C | 99% | 1012.7 hPa | 0 mm | - | 62 W/m² | - |
| 1788436414 | 22.78° C | 99% | 1012.6 hPa | 0 mm | - | 47 W/m² | - |
| 1788436114 | 21.67° C | 99% | 1012.6 hPa | 0 mm | - | 38 W/m² | - |
| 1788435810 | 21.11° C | 99% | 1012.8 hPa | 0 mm | - | 32 W/m² | - |
| 1788435505 | 20.56° C | 99% | 1012.6 hPa | 0 mm | - | 27 W/m² | - |
| 1788435201 | 20.56° C | 99% | 1012.7 hPa | 0 mm | - | 22 W/m² | - |
| 1788434896 | 20.56° C | 99% | 1012.4 hPa | 0 mm | - | 17 W/m² | - |
| 1788434592 | 20.56° C | 99% | 1012.5 hPa | 0 mm | - | 12 W/m² | - |
| 1788434291 | 20.56° C | 99% | 1012.6 hPa | 0 mm | - | 10 W/m² | - |
| 1788433986 | 20.56° C | 99% | 1012.5 hPa | 0 mm | - | 6 W/m² | - |
| 1788433682 | 21.11° C | 99% | 1012.4 hPa | 0 mm | - | 3 W/m² | - |
| 1788433377 | 21.11° C | 99% | 1012.3 hPa | 0 mm | - | 0 W/m² | - |
| 1788433077 | 21.11° C | 99% | 1012.5 hPa | 0 mm | - | 0 W/m² | - |
| 1788432772 | 21.11° C | 99% | 1012.2 hPa | 0 mm | - | 0 W/m² | - |
* Rain latest hour (hover to see other rain measurements)
** Current wind speed in m/s (hover to see current wind gust speed)